{"data":{"norad_id":49176,"intl_designator":"2021-082AY","name":"STARLINK-3069","alt_names":[],"object_type":"PAYLOAD","status":"ACTIVE","operator":null,"country":"US","launch_date":"2021-09-14","launch_site_code":"AFWTR","launch_vehicle":null,"mission":null,"orbit_class":"UNKNOWN","rcs_meters":null,"size_class":null,"mass_kg":null,"dimensions":null,"purposes":["comms"],"wikipedia_slug":null,"has_3d_model":false,"image_url":null,"decayed_at":null,"tle_current":{"epoch":"2026-09-20T02:58:28.674336Z","epoch_age_seconds":73801,"freshness":"FRESH","line1":"1 49176U 21082AY  26263.12394299  .00984495  41884-5  52528-3 0  9992","line2":"2 49176  69.9910 101.4955 0007103 265.7922  94.2487 16.19691545276648","mean_motion":16.19691545,"eccentricity":0.0007103,"inclination_deg":69.991,"raan_deg":101.4955,"arg_perigee_deg":265.7922,"mean_anomaly_deg":94.2487,"bstar":0.00052528,"rev_number":27664,"period_min":88.905816940595,"perigee_km":215.70255737287,"apogee_km":225.07642410561,"semimajor_km":6598.5264907392,"source":"CELESTRAK","updated_at":"2026-09-20T09:00:39.254111Z"}}}